Stündliche Wetter Holmy

Heute, 22 Juni, Dienstag

Zeit Temperatur Niederschläge Wind Luftdruck Luftfeuchtigkeit
00:00 +20°C° 0 mm 2 m/S 747 mmHg 86%
01:00 +20°C° 0 mm 2 m/S 747 mmHg 91%
02:00 +20°C° 0 mm 2 m/S 747 mmHg 95%
03:00 +20°C° 0 mm 2 m/S 747 mmHg 94%
04:00 +21°C° 0 mm 2 m/S 747 mmHg 92%
05:00 +21°C° 0 mm 2 m/S 747 mmHg 91%
06:00 +24°C° 0 mm 3 m/S 747 mmHg 82%
07:00 +26°C° 0 mm 3 m/S 747 mmHg 73%
08:00 +27°C° 0 mm 4 m/S 747 mmHg 64%
09:00 +28°C° 0 mm 4 m/S 747 mmHg 58%
10:00 +30°C° 0 mm 4 m/S 747 mmHg 52%
11:00 +32°C° 0 mm 4 m/S 747 mmHg 46%
12:00 +32°C° 0 mm 4 m/S 747 mmHg 43%
13:00 +33°C° 0 mm 4 m/S 747 mmHg 41%
14:00 +33°C° 0 mm 4 m/S 747 mmHg 39%
15:00 +33°C° 0 mm 4 m/S 747 mmHg 43%
16:00 +31°C° 0 mm 3 m/S 747 mmHg 48%
17:00 +30°C° 0 mm 3 m/S 747 mmHg 52%
18:00 +29°C° 0 mm 2 m/S 747 mmHg 60%
19:00 +27°C° 0 mm 2 m/S 747 mmHg 69%
20:00 +25°C° 0 mm 2 m/S 747 mmHg 77%
21:00 +24°C° 0 mm 2 m/S 747 mmHg 80%
22:00 +23°C° 0 mm 2 m/S 747 mmHg 83%
23:00 +21°C° 0 mm 2 m/S 747 mmHg 86%

Morgen, 23 Juni, Mittwoch

Zeit Temperatur Niederschläge Wind Luftdruck Luftfeuchtigkeit
00:00 +21°C° 0 mm 2 m/S 747 mmHg 88%
01:00 +20°C° 0 mm 2 m/S 748 mmHg 90%
02:00 +20°C° 0 mm 2 m/S 748 mmHg 93%
03:00 +20°C° 0 mm 2 m/S 748 mmHg 92%
04:00 +21°C° 0 mm 2 m/S 748 mmHg 92%
05:00 +22°C° 0 mm 1 m/S 748 mmHg 91%
06:00 +24°C° 0 mm 2 m/S 748 mmHg 84%
07:00 +26°C° 0 mm 2 m/S 748 mmHg 76%
08:00 +28°C° 0 mm 3 m/S 748 mmHg 68%
09:00 +29°C° 0 mm 3 m/S 748 mmHg 60%
10:00 +30°C° 0 mm 4 m/S 748 mmHg 53%
11:00 +33°C° 0 mm 4 m/S 749 mmHg 46%
12:00 +33°C° 0 mm 4 m/S 748 mmHg 43%
13:00 +34°C° 0 mm 4 m/S 748 mmHg 41%
14:00 +34°C° 0 mm 4 m/S 748 mmHg 39%
15:00 +34°C° 0 mm 3 m/S 748 mmHg 42%
16:00 +34°C° 0 mm 3 m/S 748 mmHg 46%
17:00 +33°C° 0 mm 3 m/S 748 mmHg 49%
18:00 +30°C° 0 mm 2 m/S 748 mmHg 59%
19:00 +28°C° 0 mm 2 m/S 748 mmHg 69%
20:00 +26°C° 0 mm 1 m/S 748 mmHg 79%
21:00 +26°C° 0 mm 1 m/S 748 mmHg 81%
22:00 +25°C° 0 mm 1 m/S 748 mmHg 83%
23:00 +24°C° 0 mm 1 m/S 748 mmHg 85%

übermorgen, 24 Juni, Donnerstag

Zeit Temperatur Niederschläge Wind Luftdruck Luftfeuchtigkeit
00:00 +23°C° 0 mm 2 m/S 748 mmHg 86%
01:00 +23°C° 0 mm 2 m/S 748 mmHg 87%
02:00 +21°C° 0 mm 2 m/S 748 mmHg 89%
03:00 +23°C° 0 mm 1 m/S 748 mmHg 88%
04:00 +23°C° 0 mm 1 m/S 748 mmHg 87%
05:00 +23°C° 0 mm 1 m/S 748 mmHg 87%
06:00 +25°C° 0 mm 2 m/S 748 mmHg 79%
07:00 +27°C° 0 mm 2 m/S 748 mmHg 72%
08:00 +29°C° 0 mm 2 m/S 748 mmHg 65%
09:00 +30°C° 0 mm 2 m/S 748 mmHg 59%
10:00 +32°C° 0 mm 2 m/S 748 mmHg 53%
11:00 +34°C° 0 mm 3 m/S 748 mmHg 47%
12:00 +34°C° 0 mm 3 m/S 748 mmHg 45%
13:00 +35°C° 0 mm 3 m/S 747 mmHg 43%
14:00 +35°C° 0 mm 4 m/S 747 mmHg 41%
15:00 +35°C° 0 mm 4 m/S 747 mmHg 44%
16:00 +34°C° 0 mm 3 m/S 747 mmHg 47%
17:00 +34°C° 0 mm 3 m/S 746 mmHg 50%
18:00 +31°C° 0 mm 3 m/S 746 mmHg 60%
19:00 +29°C° 0 mm 2 m/S 746 mmHg 69%
20:00 +27°C° 0 mm 1 m/S 746 mmHg 79%
21:00 +25°C° 0.6 mm 1 m/S 746 mmHg 83%
22:00 +24°C° 0.6 mm 2 m/S 746 mmHg 87%
23:00 +23°C° 0.6 mm 2 m/S 746 mmHg 91%

25 Juni, Freitag

Zeit Temperatur Niederschläge Wind Luftdruck Luftfeuchtigkeit
00:00 +22°C° 0.9 mm 1 m/S 746 mmHg 92%
01:00 +21°C° 0.9 mm 1 m/S 746 mmHg 94%
02:00 +21°C° 0.9 mm 1 m/S 746 mmHg 95%
03:00 +21°C° 0.1 mm 1 m/S 745 mmHg 94%
04:00 +21°C° 0.1 mm 1 m/S 745 mmHg 93%
05:00 +21°C° 0.1 mm 1 m/S 745 mmHg 92%
06:00 +22°C° 0 mm 1 m/S 745 mmHg 83%
07:00 +24°C° 0 mm 2 m/S 746 mmHg 75%
08:00 +26°C° 0 mm 2 m/S 746 mmHg 66%
09:00 +27°C° 0 mm 2 m/S 746 mmHg 62%
10:00 +29°C° 0 mm 2 m/S 746 mmHg 57%
11:00 +30°C° 0 mm 3 m/S 746 mmHg 52%
12:00 +30°C° 0 mm 3 m/S 746 mmHg 52%
13:00 +31°C° 0 mm 2 m/S 745 mmHg 52%
14:00 +31°C° 0 mm 2 m/S 745 mmHg 52%
15:00 +31°C° 0 mm 3 m/S 745 mmHg 55%
16:00 +31°C° 0 mm 3 m/S 744 mmHg 58%
17:00 +30°C° 0 mm 3 m/S 744 mmHg 61%
18:00 +29°C° 0.3 mm 2 m/S 744 mmHg 69%
19:00 +27°C° 0.3 mm 2 m/S 744 mmHg 78%
20:00 +25°C° 0.3 mm 1 m/S 744 mmHg 86%
21:00 +23°C° 0.5 mm 2 m/S 744 mmHg 87%
22:00 +21°C° 0.5 mm 2 m/S 744 mmHg 88%
23:00 +20°C° 0.5 mm 2 m/S 744 mmHg 89%

26 Juni, Samstag

Zeit Temperatur Niederschläge Wind Luftdruck Luftfeuchtigkeit
00:00 +20°C° 0.2 mm 2 m/S 744 mmHg 90%
01:00 +19°C° 0.2 mm 2 m/S 743 mmHg 91%
02:00 +19°C° 0.2 mm 2 m/S 743 mmHg 92%
03:00 +19°C° 0 mm 2 m/S 743 mmHg 93%
04:00 +19°C° 0 mm 2 m/S 743 mmHg 94%
05:00 +20°C° 0 mm 2 m/S 743 mmHg 94%
06:00 +21°C° 0 mm 2 m/S 743 mmHg 86%
07:00 +24°C° 0 mm 2 m/S 743 mmHg 79%
08:00 +26°C° 0 mm 2 m/S 743 mmHg 71%
09:00 +27°C° 0 mm 2 m/S 743 mmHg 64%
10:00 +29°C° 0 mm 3 m/S 744 mmHg 57%
11:00 +30°C° 0 mm 3 m/S 744 mmHg 49%
12:00 +30°C° 0.1 mm 3 m/S 744 mmHg 50%
13:00 +30°C° 0.1 mm 3 m/S 744 mmHg 50%
14:00 +30°C° 0.1 mm 3 m/S 744 mmHg 50%
15:00 +30°C° 0 mm 2 m/S 743 mmHg 51%
16:00 +30°C° 0 mm 2 m/S 743 mmHg 52%
17:00 +30°C° 0 mm 2 m/S 743 mmHg 53%
18:00 +28°C° 0.1 mm 2 m/S 743 mmHg 63%
19:00 +26°C° 0.1 mm 2 m/S 743 mmHg 72%
20:00 +25°C° 0.1 mm 1 m/S 743 mmHg 81%
21:00 +24°C° 0.1 mm 1 m/S 743 mmHg 84%
22:00 +23°C° 0.1 mm 1 m/S 743 mmHg 88%
23:00 +22°C° 0.1 mm 1 m/S 743 mmHg 91%

27 Juni, Sonntag

Zeit Temperatur Niederschläge Wind Luftdruck Luftfeuchtigkeit
00:00 +21°C° 0.2 mm 1 m/S 743 mmHg 93%
01:00 +21°C° 0.2 mm 1 m/S 743 mmHg 95%
02:00 +20°C° 0.2 mm 1 m/S 743 mmHg 97%
03:00 +20°C° 0 mm 1 m/S 743 mmHg 96%
04:00 +20°C° 0 mm 1 m/S 743 mmHg 95%
05:00 +20°C° 0 mm 1 m/S 743 mmHg 95%
06:00 +20°C° 0.5 mm 2 m/S 743 mmHg 91%
07:00 +21°C° 0.5 mm 2 m/S 744 mmHg 88%
08:00 +24°C° 0.5 mm 2 m/S 744 mmHg 84%
09:00 +25°C° 0.1 mm 2 m/S 744 mmHg 78%
10:00 +26°C° 0.1 mm 2 m/S 744 mmHg 71%
11:00 +28°C° 0.1 mm 2 m/S 744 mmHg 65%
12:00 +28°C° 0.2 mm 2 m/S 744 mmHg 63%
13:00 +29°C° 0.2 mm 2 m/S 744 mmHg 61%
14:00 +29°C° 0.2 mm 2 m/S 744 mmHg 59%
15:00 +29°C° 0.1 mm 2 m/S 744 mmHg 60%
16:00 +29°C° 0.1 mm 2 m/S 743 mmHg 61%
17:00 +29°C° 0.1 mm 2 m/S 743 mmHg 61%
18:00 +27°C° 0.6 mm 2 m/S 743 mmHg 69%
19:00 +25°C° 0.6 mm 2 m/S 743 mmHg 77%
20:00 +23°C° 0.6 mm 2 m/S 743 mmHg 84%
21:00 +21°C° 1.4 mm 2 m/S 743 mmHg 88%
22:00 +20°C° 1.4 mm 2 m/S 744 mmHg 91%
23:00 +19°C° 1.4 mm 2 m/S 744 mmHg 94%
Mehr zeigen

Wir brauchen deine Erlaubnis

Meteoprog und unser Service Anbieter werden persönliche Daten aufbewahren, so wie Cookies, Geräte Bezeichnung oder ähnliche Technologien von deinem Gerät und Prozess, so wie Persönliche Daten Inhalte und Werbungen, genauso wie social Media und den Verkehr zu analysieren.

  • Aufbewahrung und/oder Zugang zu deiner Geräte Informationen.

    Cookies, Geräte Bezeichnung oder andere Informationen, können aufbewahrt oder Zugang zu deinem Gerät erhalten, für den Grund, der oben angegeben wird.

  • Personalisierte Werbung und Inhalte, Messungen, Einblick in das Publikum und Produkt Entwicklung.

    Werbungen und Inhalte können personalisiert werden, basierend auf ein Profil. Mehr Daten können besser personalisierte Werbungen und Inhalte hinzufügen. Werbung und Inhalte können gezeigt und gemessen werden. Einblicke über das Publikum, welche die Werbung gesehen haben und den Inhalt, können abgeleitet werden. So wie Daten können genutzt werden, um es zu verbessern oder die Benutzer Erfahrung zu verbessern das System und die Software.

Wenn du “Ich stimme zu” klickst, erlaubst du uns, die Cookies zu benutzen die Geräte Bezeichnung, den Web oder ähnliche Technologien zu benutzen. Deine Settings, können in deinem Gerät bei deinem Browser geändert werden.

Für den bestimmten Zweck, berechtigten Interessen beruhen darauf, mehr als auf den Inhalt. Du kannst mehr darüber in unseren Privaten und Cookie Politik lesen.